Weather History for Beach, ND

Change the Weather History Date:

Tuesday, November 20, 2012

  Actual Average (KGDV) Record (KGDV)
Temperature  
Mean Temperature 44 °F -  
Max Temperature 59 °F 36 °F 62 °F (2001)
Min Temperature 30 °F 18 °F -5 °F (2011)
Degree Days  
Heating Degree Days 20    
Moisture  
Dew Point 31 °F    
Average Humidity 67    
Maximum Humidity 87    
Minimum Humidity 36    
Precipitation  
Precipitation 0.00 in - - ()
Sea Level Pressure  
Sea Level Pressure 29.88 in    
Wind  
Wind Speed 8 mph (South)    
Max Wind Speed 16 mph    
Max Gust Speed 20 mph    
Visibility 10 miles    
Events      
Averages and records for this station are not official NWS values.
T = Trace of Precipitation, MM = Missing Value Source: NWS Daily Summary

Daily Weather History Graph

Daily Weather History Graph

Search for Another Location

Airport:

Trip Planner

Search our weather history database for the weather conditions in past years. The results will help you decide how hot, cold, wet, or windy it might be!

Date:

Astronomy

Nov. 20, 2012 Rise Set
Actual Time 7:06 AM MST 4:16 PM MST
Civil Twilight 6:33 AM MST 4:49 PM MST
Nautical Twilight 5:55 AM MST 5:27 PM MST
Astronomical Twilight 5:19 AM MST 6:03 PM MST
Moon 12:28 PM MST (11/20) No Moon Set
Length of Visible Light 10h 16m
Length of Day
9h 09m
First Quarter, 52% of the Moon is Illuminated
Nov 20
First Quarter
Nov 28
Full
Dec 6
Last Quarter
Dec 13
New
Dec 19
First Quarter

Hourly Weather History & Observations

Time (MST) Temp. Windchill Dew Point Humidity Pressure Visibility Wind Dir Wind Speed Gust Speed Precip Events Conditions
12:15 AM 35.6 °F 29.9 °F 26.6 °F 70% 29.96 in 10.0 mi South 6.9 mph - N/A   Clear
12:35 AM 35.6 °F 27.1 °F 24.8 °F 65% 29.95 in 10.0 mi SSE 12.7 mph 18.4 mph N/A   Clear
12:55 AM 35.6 °F 28.6 °F 26.6 °F 70% 29.95 in 10.0 mi SSE 9.2 mph 16.1 mph N/A   Clear
1:15 AM 35.6 °F 29.9 °F 26.6 °F 70% 29.94 in 10.0 mi SE 6.9 mph - N/A   Clear
1:35 AM 35.6 °F 29.2 °F 26.6 °F 70% 29.94 in 10.0 mi South 8.1 mph - N/A   Clear
5:15 AM 32.0 °F 24.2 °F 26.6 °F 80% 29.91 in 10.0 mi SSE 9.2 mph - N/A   Clear
5:35 AM 32.0 °F 25.6 °F 26.6 °F 80% 29.91 in 10.0 mi South 6.9 mph - N/A   Clear
5:55 AM 32.0 °F 24.2 °F 26.6 °F 80% 29.90 in 10.0 mi SSE 9.2 mph - N/A   Clear
6:15 AM 32.0 °F 26.4 °F 26.6 °F 80% 29.91 in 10.0 mi South 5.8 mph - N/A   Clear
6:35 AM 32.0 °F 24.2 °F 26.6 °F 80% 29.92 in 10.0 mi South 9.2 mph - N/A   Clear
6:55 AM 30.2 °F 24.3 °F 26.6 °F 86% 29.91 in 10.0 mi SSE 5.8 mph - N/A   Clear
7:15 AM 32.0 °F 24.2 °F 26.6 °F 80% 29.91 in 10.0 mi SSE 9.2 mph - N/A   Clear
7:35 AM 32.0 °F 28.7 °F 26.6 °F 80% 29.91 in 10.0 mi SSE 3.5 mph - N/A   Clear
7:55 AM 32.0 °F 27.5 °F 26.6 °F 80% 29.91 in 10.0 mi SSE 4.6 mph - N/A   Clear
8:15 AM 33.8 °F 27.7 °F 28.4 °F 81% 29.91 in 10.0 mi SSE 6.9 mph - N/A   Clear
8:35 AM 37.4 °F 32.1 °F 28.4 °F 70% 29.92 in 10.0 mi South 6.9 mph - N/A   Clear
8:55 AM 41.0 °F 37.1 °F 30.2 °F 65% 29.92 in 10.0 mi SSE 5.8 mph - N/A   Clear
9:15 AM 44.6 °F 41.4 °F 32.0 °F 61% 29.92 in 10.0 mi South 5.8 mph - N/A   Clear
9:35 AM 46.4 °F 43.5 °F 32.0 °F 57% 29.92 in 10.0 mi South 5.8 mph - N/A   Clear
9:55 AM 48.2 °F - 32.0 °F 54% 29.91 in 10.0 mi SW 9.2 mph - N/A   Clear
10:15 AM 51.8 °F - 32.0 °F 47% 29.91 in 10.0 mi SSW 8.1 mph - N/A   Clear
10:35 AM 53.6 °F - 32.0 °F 44% 29.91 in 10.0 mi SW 6.9 mph - N/A   Clear
10:55 AM 53.6 °F - 32.0 °F 44% 29.90 in 10.0 mi SSW 8.1 mph - N/A   Clear
11:15 AM 53.6 °F - 32.0 °F 44% 29.90 in 10.0 mi WSW 6.9 mph - N/A   Clear
11:35 AM 55.4 °F - 32.0 °F 41% 29.90 in 10.0 mi WSW 6.9 mph - N/A   Clear
12:15 PM 55.4 °F - 32.0 °F 41% 29.89 in 10.0 mi SW 9.2 mph - N/A   Clear
12:35 PM 55.4 °F - 32.0 °F 41% 29.89 in 10.0 mi WSW 10.4 mph - N/A   Clear
1:15 PM 57.2 °F - 32.0 °F 38% 29.88 in 10.0 mi WSW 12.7 mph 18.4 mph N/A   Clear
1:35 PM 59.0 °F - 32.0 °F 36% 29.88 in 10.0 mi WSW 16.1 mph 19.6 mph N/A   Clear
1:55 PM 57.2 °F - 32.0 °F 38% 29.88 in 10.0 mi WSW 13.8 mph - N/A   Clear
2:15 PM 57.2 °F - 32.0 °F 38% 29.86 in 10.0 mi WSW 10.4 mph 17.3 mph N/A   Clear
2:35 PM 57.2 °F - 32.0 °F 38% 29.87 in 10.0 mi WSW 9.2 mph - N/A   Clear
2:55 PM 55.4 °F - 32.0 °F 41% 29.87 in 10.0 mi WSW 4.6 mph - N/A   Clear
3:15 PM 53.6 °F - 33.8 °F 47% 29.87 in 10.0 mi SW 6.9 mph - N/A   Clear
3:35 PM 53.6 °F - 33.8 °F 47% 29.87 in 10.0 mi SW 3.5 mph - N/A   Clear
3:55 PM 50.0 °F - 33.8 °F 54% 29.88 in 10.0 mi SW 8.1 mph - N/A   Clear
4:15 PM 48.2 °F - 32.0 °F 54% 29.87 in 10.0 mi SW 6.9 mph - N/A   Clear
4:35 PM 41.0 °F 36.4 °F 32.0 °F 70% 29.87 in 10.0 mi SSW 6.9 mph - N/A   Clear
4:55 PM 48.2 °F - 32.0 °F 54% 29.87 in 10.0 mi SSW 9.2 mph - N/A   Clear
5:15 PM 39.2 °F 33.0 °F 32.0 °F 75% 29.88 in 10.0 mi South 9.2 mph - N/A   Clear
5:35 PM 39.2 °F 35.0 °F 32.0 °F 75% 29.88 in 10.0 mi South 5.8 mph - N/A   Clear
5:55 PM 39.2 °F 35.0 °F 32.0 °F 75% 29.87 in 10.0 mi South 5.8 mph - N/A   Clear
6:15 PM 37.4 °F 32.1 °F 32.0 °F 81% 29.87 in 10.0 mi South 6.9 mph - N/A   Clear
6:35 PM 37.4 °F 32.1 °F 32.0 °F 81% 29.87 in 10.0 mi SSE 6.9 mph - N/A   Clear
6:55 PM 35.6 °F 29.9 °F 32.0 °F 87% 29.87 in 10.0 mi South 6.9 mph - N/A   Clear
7:15 PM 35.6 °F 30.7 °F 32.0 °F 87% 29.86 in 10.0 mi SSW 5.8 mph - N/A   Clear
7:35 PM 35.6 °F 29.2 °F 32.0 °F 87% 29.86 in 10.0 mi South 8.1 mph - N/A   Clear
7:55 PM 35.6 °F 29.2 °F 32.0 °F 87% 29.86 in 10.0 mi South 8.1 mph - N/A   Clear
8:15 PM 37.4 °F 31.4 °F 32.0 °F 81% 29.85 in 10.0 mi South 8.1 mph - N/A   Clear
8:35 PM 37.4 °F 32.1 °F 32.0 °F 81% 29.85 in 10.0 mi South 6.9 mph - N/A   Clear
8:55 PM 37.4 °F 32.1 °F 32.0 °F 81% 29.85 in 10.0 mi SSE 6.9 mph - N/A   Clear
9:15 PM 39.2 °F 37.0 °F 32.0 °F 75% 29.84 in 10.0 mi SSE 3.5 mph - N/A   Clear
9:35 PM 39.2 °F 37.0 °F 32.0 °F 75% 29.84 in 10.0 mi South 3.5 mph - N/A   Clear
9:55 PM 35.6 °F 29.9 °F 32.0 °F 87% 29.83 in 10.0 mi South 6.9 mph - N/A   Clear
10:15 PM 35.6 °F 32.8 °F 32.0 °F 87% 29.83 in 10.0 mi SSE 3.5 mph - N/A   Clear
10:35 PM 37.4 °F 32.1 °F 32.0 °F 81% 29.82 in 10.0 mi South 6.9 mph - N/A   Clear
10:55 PM 37.4 °F 32.1 °F 32.0 °F 81% 29.82 in 10.0 mi South 6.9 mph - N/A   Clear
11:15 PM 39.2 °F 35.0 °F 32.0 °F 75% 29.81 in 10.0 mi South 5.8 mph - N/A   Clear
11:35 PM 39.2 °F 35.0 °F 32.0 °F 75% 29.81 in 10.0 mi South 5.8 mph - N/A   Clear
11:55 PM 39.2 °F 35.9 °F 32.0 °F 75% 29.81 in 10.0 mi South 4.6 mph - N/A   Partly Cloudy